Weather History for KPNC - August, 2013

Change the Weather History Date:

Sunday, August 25, 2013

  Actual Average Record
Temperature  
Mean Temperature 82 °F -  
Max Temperature 93 °F 93 °F 106 °F (2006)
Min Temperature 73 °F 66 °F 53 °F (2010)
Cooling Degree Days 17    
Growing Degree Days 32 (Base 50)    
Moisture  
Dew Point 69 °F    
Average Humidity 65    
Maximum Humidity 85    
Minimum Humidity 44    
Precipitation  
Precipitation 0.00 in - - ()
Sea Level Pressure  
Sea Level Pressure 30.10 in    
Wind  
Wind Speed 8 mph (SE)    
Max Wind Speed 14 mph    
Max Gust Speed 21 mph    
Visibility 10 miles    
Events      
Averages and records for this station are not official NWS values.
T = Trace of Precipitation, MM = Missing Value Source: NWS Daily Summary

Daily Weather History Graph

Daily Weather History Graph

Search for Another Location

Airport or City:

Trip Planner

Search our weather history database for the weather conditions in past years. The results will help you decide how hot, cold, wet, or windy it might be!

Date:

Astronomy

Aug. 25, 2013 Rise Set
Actual Time 6:54 AM CDT 8:06 PM CDT
Civil Twilight 6:27 AM CDT 8:32 PM CDT
Nautical Twilight 5:55 AM CDT 9:04 PM CDT
Astronomical Twilight 5:21 AM CDT 9:37 PM CDT
Moon 10:47 PM CDT (8/25) 11:47 AM CDT (8/25)
Length of Visible Light 14h 05m
Length of Day
13h 12m
Waning Gibbous, 75% of the Moon is Illuminated
Aug 25
Waning Gibbous
Aug 28
Last Quarter
Sep 5
New
Sep 12
First Quarter
Sep 19
Full

Hourly Weather History & Observations

Time (CDT) Temp. Heat Index Dew Point Humidity Pressure Visibility Wind Dir Wind Speed Gust Speed Precip Events Conditions
12:53 AM 75.0 °F - 69.1 °F 82% 30.08 in 10.0 mi SE 5.8 mph - N/A   Clear
1:53 AM 73.9 °F - 69.1 °F 85% 30.08 in 10.0 mi SE 6.9 mph - N/A   Clear
2:53 AM 73.9 °F - 69.1 °F 85% 30.08 in 10.0 mi SE 6.9 mph - N/A   Clear
3:53 AM 75.0 °F - 69.1 °F 82% 30.09 in 10.0 mi SE 8.1 mph - N/A   Clear
4:53 AM 75.0 °F - 68.0 °F 79% 30.09 in 10.0 mi SSE 9.2 mph - N/A   Clear
5:53 AM 75.0 °F - 68.0 °F 79% 30.11 in 10.0 mi SE 8.1 mph - N/A   Clear
6:53 AM 73.0 °F - 68.0 °F 84% 30.13 in 9.0 mi SE 5.8 mph - N/A   Clear
7:53 AM 75.0 °F - 69.1 °F 82% 30.14 in 9.0 mi SE 8.1 mph - N/A   Clear
8:53 AM 79.0 °F - 69.1 °F 72% 30.14 in 10.0 mi SSE 11.5 mph - N/A   Clear
9:53 AM 82.0 °F 86.3 °F 71.1 °F 69% 30.14 in 10.0 mi SSE 9.2 mph - N/A   Clear
10:53 AM 84.9 °F 90.1 °F 71.1 °F 63% 30.15 in 10.0 mi Variable 5.8 mph - N/A   Clear
11:53 AM 88.0 °F 93.8 °F 71.1 °F 57% 30.14 in 10.0 mi South 6.9 mph - N/A   Clear
12:53 PM 91.0 °F 97.6 °F 71.1 °F 52% 30.12 in 10.0 mi Variable 5.8 mph - N/A   Clear
1:53 PM 91.0 °F 95.6 °F 69.1 °F 48% 30.11 in 10.0 mi South 5.8 mph - N/A   Clear
2:53 PM 91.9 °F 95.4 °F 66.9 °F 44% 30.09 in 10.0 mi SE 5.8 mph - N/A   Partly Cloudy
3:53 PM 91.9 °F 95.4 °F 66.9 °F 44% 30.08 in 10.0 mi SE 13.8 mph 18.4 mph N/A   Clear
4:53 PM 91.9 °F 95.9 °F 68.0 °F 45% 30.07 in 10.0 mi SE 10.4 mph 20.7 mph N/A   Clear
5:53 PM 91.0 °F 95.2 °F 68.0 °F 47% 30.07 in 10.0 mi SSE 12.7 mph - N/A   Clear
6:53 PM 90.0 °F 92.8 °F 66.9 °F 46% 30.06 in 10.0 mi SSE 11.5 mph - N/A   Clear
7:53 PM 87.1 °F 90.6 °F 68.0 °F 53% 30.06 in 10.0 mi SSE 10.4 mph - N/A   Clear
8:53 PM 84.0 °F 87.8 °F 69.1 °F 61% 30.08 in 10.0 mi SSE 9.2 mph - N/A   Clear
9:53 PM 81.0 °F 84.1 °F 69.1 °F 67% 30.10 in 10.0 mi SE 8.1 mph - N/A   Clear
10:53 PM 81.0 °F 84.1 °F 69.1 °F 67% 30.11 in 10.0 mi SE 9.2 mph - N/A   Clear
11:53 PM 80.1 °F 82.9 °F 69.1 °F 69% 30.11 in 10.0 mi SSE 8.1 mph - N/A   Clear